{"data":{"norad_id":58031,"intl_designator":"2023-156D","name":"STARLINK-30556","alt_names":[],"object_type":"PAYLOAD","status":"ACTIVE","operator":null,"country":"US","launch_date":"2023-10-09","launch_site_code":"AFWTR","launch_vehicle":null,"mission":null,"orbit_class":"UNKNOWN","rcs_meters":null,"size_class":null,"mass_kg":null,"dimensions":null,"purposes":["comms"],"wikipedia_slug":null,"has_3d_model":false,"image_url":null,"decayed_at":null,"tle_current":{"epoch":"2026-09-20T08:37:28.000704Z","epoch_age_seconds":150546,"freshness":"FRESH","line1":"1 58031U 23156D   26263.35935186  .00001007  00000+0  40957-4 0  9999","line2":"2 58031  53.1595 260.0469 0001341  77.5188 282.5965 15.34393947166029","mean_motion":15.34393947,"eccentricity":0.0001341,"inclination_deg":53.1595,"raan_deg":260.0469,"arg_perigee_deg":77.5188,"mean_anomaly_deg":282.5965,"bstar":4.0957e-5,"rev_number":16602,"period_min":93.848128299479,"perigee_km":461.80387196907,"apogee_km":463.63859014664,"semimajor_km":6840.8582310579,"source":"CELESTRAK","updated_at":"2026-09-21T09:00:33.758168Z"}}}